Auburn-Lewiston, ME

5:12 PM EST on December 07, 2019 (GMT -0500)
Auburn-Lewiston Municipal

Weather History for KLEW - November, 2019

Change the Weather History Date:

Saturday, November 16, 2019

  Actual Average Record
Temperature  
Mean Temperature 21 °F -  
Max Temperature 28 °F 42 °F 60 °F (2001)
Min Temperature 14 °F 27 °F 10 °F (1996)
Degree Days  
Heating Degree Days 44    
Moisture  
Dew Point 4 °F    
Average Humidity 48    
Maximum Humidity 77    
Minimum Humidity 31    
Precipitation  
Precipitation 0.00 in - - ()
Sea Level Pressure  
Sea Level Pressure 30.50 in    
Wind  
Wind Speed 10 mph (NW)    
Max Wind Speed 18 mph    
Max Gust Speed 25 mph    
Visibility 10 miles    
Events      
Averages and records for this station are not official NWS values.
T = Trace of Precipitation, MM = Missing Value Source: NWS Daily Summary

Daily Weather History Graph

Daily Weather History Graph

Search for Another Location

Airport or City:

Astronomy

Nov. 16, 2019 Rise Set
Actual Time 6:37 AM EST 4:14 PM EST
Civil Twilight 6:05 AM EST 4:45 PM EST
Nautical Twilight 5:30 AM EST 5:20 PM EST
Astronomical Twilight 4:56 AM EST 5:54 PM EST
Moon 7:39 PM EST (11/16) 10:32 AM EST (11/16)
Length of Visible Light 10h 39m
Length of Day
9h 36m
Waning Gibbous, 82% of the Moon is Illuminated
Nov 16
Waning Gibbous
Nov 19
Last Quarter
Nov 26
New
Dec 4
First Quarter
Dec 12
Full

Hourly Weather History & Observations

Time (EST) Temp. Windchill Dew Point Humidity Pressure Visibility Wind Dir Wind Speed Gust Speed Precip Events Conditions
12:56 AM 27.0 °F 18.7 °F 9.0 °F 47% 30.27 in 10.0 mi NW 8.1 mph 21.9 mph N/A   Clear
1:56 AM 25.0 °F 11.3 °F 8.1 °F 49% 30.32 in 10.0 mi NW 18.4 mph 25.3 mph N/A   Mostly Cloudy
2:56 AM 21.0 °F 8.1 °F 3.0 °F 46% 30.36 in 10.0 mi NW 13.8 mph 20.7 mph N/A   Clear
3:56 AM 18.0 °F 5.4 °F 1.9 °F 50% 30.40 in 10.0 mi NNW 11.5 mph - N/A   Clear
4:56 AM 17.1 °F 3.0 °F 1.0 °F 50% 30.43 in 10.0 mi NW 13.8 mph - N/A   Clear
5:56 AM 16.0 °F 3.6 °F 1.0 °F 52% 30.46 in 10.0 mi WNW 10.4 mph - N/A   Clear
6:56 AM 15.1 °F 4.2 °F 1.0 °F 54% 30.50 in 10.0 mi WNW 8.1 mph - N/A   Clear
7:56 AM 16.0 °F 2.9 °F 3.0 °F 57% 30.53 in 10.0 mi NW 11.5 mph - N/A   Clear
8:56 AM 19.0 °F 6.1 °F 5.0 °F 54% 30.54 in 10.0 mi WNW 12.7 mph - N/A   Clear
9:56 AM 21.0 °F 9.3 °F 5.0 °F 50% 30.55 in 10.0 mi NW 11.5 mph - N/A   Clear
10:56 AM 23.0 °F 11.7 °F 5.0 °F 46% 30.54 in 10.0 mi NW 11.5 mph 20.7 mph N/A   Clear
11:56 AM 25.0 °F 13.1 °F 3.0 °F 39% 30.52 in 10.0 mi NW 13.8 mph 19.6 mph N/A   Clear
12:56 PM 27.0 °F 16.1 °F 1.9 °F 34% 30.51 in 10.0 mi NW 12.7 mph - N/A   Clear
1:56 PM 28.0 °F 17.5 °F 1.0 °F 31% 30.48 in 10.0 mi NW 12.7 mph - N/A   Clear
2:56 PM 28.9 °F 18.6 °F 1.9 °F 32% 30.49 in 10.0 mi NNW 12.7 mph - N/A   Clear
3:56 PM 28.0 °F 21.7 °F 1.0 °F 31% 30.51 in 10.0 mi NW 5.8 mph - N/A   Clear
4:56 PM 25.0 °F 20.7 °F 3.0 °F 39% 30.53 in 10.0 mi NW 3.5 mph - N/A   Clear
5:56 PM 24.1 °F 19.7 °F 1.9 °F 38% 30.57 in 10.0 mi WNW 3.5 mph - N/A   Clear
6:56 PM 21.9 °F 13.4 °F 3.9 °F 46% 30.56 in 10.0 mi NNW 6.9 mph - N/A   Clear
7:56 PM 19.9 °F 12.1 °F 5.0 °F 52% 30.56 in 10.0 mi NNW 5.8 mph - N/A   Clear
8:56 PM 19.9 °F - 3.9 °F 50% 30.58 in 10.0 mi Calm Calm - N/A   Clear
9:56 PM 15.1 °F - 7.0 °F 70% 30.58 in 10.0 mi Calm Calm - N/A   Clear
10:56 PM 14.0 °F 6.5 °F 8.1 °F 77% 30.56 in 10.0 mi NNW 4.6 mph - N/A   Clear
11:56 PM 16.0 °F 10.4 °F 7.0 °F 68% 30.56 in 10.0 mi North 3.5 mph - N/A   Clear